Glens Falls, NY

12:18 PM EDT on October 14, 2019 (GMT -0400)
Bennett Memorial

Weather History for KGFL - August, 2019

Change the Weather History Date:

Tuesday, August 13, 2019

  Actual Average Record
Temperature  
Mean Temperature 72 °F 68 °F  
Max Temperature 82 °F 80 °F 95 °F (1944)
Min Temperature 61 °F 56 °F 41 °F (2006)
Degree Days  
Heating Degree Days 0 1  
Month to date heating degree days 5 13  
Since 1 June heating degree days 75 124  
Since 1 July heating degree days 5 34  
Cooling Degree Days 7 4  
Month to date cooling degree days 47 52  
Year to date cooling degree days 343 272  
Since 1 June cooling degree days 334 260  
Growing Degree Days 22 (Base 50)    
Moisture  
Dew Point 66 °F    
Average Humidity 81    
Maximum Humidity 100    
Minimum Humidity 62    
Precipitation  
Precipitation 0.47 in 0.12 in 1.24 in (2004)
Month to date precipitation 0.62 1.68  
Year to date precipitation 26.56 23.81  
Sea Level Pressure  
Sea Level Pressure 29.77 in    
Wind  
Wind Speed 4 mph (South)    
Max Wind Speed 20 mph    
Max Gust Speed 26 mph    
Visibility 8 miles    
Events Fog , Rain    
T = Trace of Precipitation, MM = Missing Value Source: NWS Daily Summary

Daily Weather History Graph

Daily Weather History Graph

Search for Another Location

Airport or City:

Astronomy

Aug. 13, 2019 Rise Set
Actual Time 5:57 AM EDT 8:00 PM EDT
Civil Twilight 5:26 AM EDT 8:31 PM EDT
Nautical Twilight 4:47 AM EDT 9:09 PM EDT
Astronomical Twilight 4:05 AM EDT 9:51 PM EDT
Moon 7:16 PM EDT (8/13) 3:52 AM EDT (8/13)
Length of Visible Light 15h 05m
Length of Day
14h 03m
Waxing Gibbous, 97% of the Moon is Illuminated
Aug 13
Waxing Gibbous
Aug 15
Full
Aug 23
Last Quarter
Aug 30
New
Sep 5
First Quarter

Hourly Weather History & Observations

Time (EDT) Temp. Heat Index Dew Point Humidity Pressure Visibility Wind Dir Wind Speed Gust Speed Precip Events Conditions
12:53 AM 71.1 °F - 63.0 °F 75% 29.79 in 10.0 mi South 6.9 mph - N/A   Scattered Clouds
1:53 AM 71.1 °F - 64.0 °F 78% 29.79 in 10.0 mi WSW 4.6 mph - N/A   Mostly Cloudy
2:53 AM 68.0 °F - 64.9 °F 90% 29.79 in 10.0 mi South 5.8 mph - 0.01 in Rain Light Rain
3:53 AM 68.0 °F - 66.0 °F 93% 29.77 in 10.0 mi SSW 6.9 mph - 0.01 in   Overcast
4:53 AM 68.0 °F - 64.9 °F 90% 29.76 in 10.0 mi SSW 6.9 mph - N/A   Overcast
5:53 AM 69.1 °F - 64.9 °F 87% 29.78 in 10.0 mi Calm Calm - N/A   Overcast
6:53 AM 68.0 °F - 66.0 °F 93% 29.78 in 10.0 mi Calm Calm - N/A   Overcast
7:53 AM 70.0 °F - 66.0 °F 87% 29.78 in 10.0 mi Calm Calm - N/A   Scattered Clouds
8:53 AM 73.9 °F - 64.9 °F 73% 29.77 in 10.0 mi SSW 3.5 mph - N/A   Partly Cloudy
9:53 AM 75.0 °F - 66.0 °F 73% 29.78 in 10.0 mi South 4.6 mph - N/A   Overcast
10:53 AM 75.9 °F - 66.9 °F 74% 29.77 in 10.0 mi South 8.1 mph - N/A   Mostly Cloudy
11:53 AM 77.0 °F - 66.9 °F 71% 29.76 in 10.0 mi South 9.2 mph - N/A   Partly Cloudy
12:53 PM 80.1 °F 82.1 °F 66.0 °F 62% 29.74 in 10.0 mi SW 12.7 mph - N/A   Scattered Clouds
1:53 PM 81.0 °F 83.0 °F 66.0 °F 60% 29.72 in 10.0 mi SSW 16.1 mph 23.0 mph N/A   Clear
2:41 PM 69.1 °F - 64.9 °F 87% 29.75 in 0.8 mi NE 12.7 mph - 0.28 in Rain Heavy Rain
2:53 PM 69.1 °F - 64.9 °F 87% 29.73 in 1.0 mi Variable 3.5 mph - 0.44 in Rain Rain
2:58 PM 69.1 °F - 64.9 °F 87% 29.74 in 3.0 mi South 3.5 mph - 0.01 in Rain Light Rain
3:05 PM 69.1 °F - 66.0 °F 90% 29.74 in 7.0 mi Calm Calm - 0.01 in Rain Light Rain
3:53 PM 73.0 °F - 66.0 °F 79% 29.73 in 10.0 mi SE 3.5 mph - 0.01 in   Mostly Cloudy
4:36 PM 73.0 °F - 69.1 °F 87% 29.74 in 10.0 mi SSE 5.8 mph - N/A   Scattered Clouds
4:53 PM 73.0 °F - 69.1 °F 87% 29.74 in 10.0 mi SE 6.9 mph - N/A   Mostly Cloudy
5:23 PM 72.0 °F - 66.9 °F 84% 29.75 in 10.0 mi SSE 4.6 mph - N/A   Overcast
5:33 PM 72.0 °F - 68.0 °F 87% 29.75 in 10.0 mi Calm Calm - N/A   Overcast
5:53 PM 72.0 °F - 66.0 °F 81% 29.75 in 10.0 mi Calm Calm - N/A   Mostly Cloudy
6:53 PM 72.0 °F - 68.0 °F 87% 29.76 in 10.0 mi SW 3.5 mph - N/A   Overcast
7:53 PM 71.1 °F - 68.0 °F 90% 29.78 in 10.0 mi North 4.6 mph - N/A   Overcast
8:53 PM 69.1 °F - 66.9 °F 93% 29.80 in 10.0 mi Calm Calm - N/A   Mostly Cloudy
9:00 PM 68.0 °F - 66.9 °F 96% 29.80 in 1.8 mi Calm Calm - N/A   Mostly Cloudy
9:10 PM 66.9 °F - 66.0 °F 97% 29.80 in 0.5 mi Calm Calm - N/A Fog Fog
9:24 PM 66.9 °F - 66.0 °F 97% 29.81 in 2.0 mi Calm Calm - N/A   Partly Cloudy
9:35 PM 66.9 °F - 64.9 °F 93% 29.81 in 7.0 mi NNW 3.5 mph - N/A   Partly Cloudy
9:53 PM 66.9 °F - 64.0 °F 90% 29.81 in 10.0 mi North 4.6 mph - N/A   Mostly Cloudy
10:53 PM 64.9 °F - 63.0 °F 93% 29.82 in 10.0 mi Calm Calm - N/A   Overcast
11:27 PM 63.0 °F - 62.1 °F 97% 29.82 in 2.0 mi South 4.6 mph - N/A   Clear
11:36 PM 63.0 °F - 62.1 °F 97% 29.82 in 7.0 mi South 3.5 mph - N/A   Clear
11:53 PM 63.0 °F - 62.1 °F 97% 29.82 in 10.0 mi Calm Calm - N/A   Scattered Clouds